Weather History for KSMQ - May, 2013

Change the Weather History Date:

Saturday, May 18, 2013

  Actual Average Record
Temperature  
Mean Temperature 56 °F -  
Max Temperature 66 °F 73 °F 94 °F (1962)
Min Temperature 48 °F 49 °F 33 °F (1983)
Degree Days  
Heating Degree Days 9    
Growing Degree Days 6 (Base 50)    
Moisture  
Dew Point 52 °F    
Average Humidity 82    
Maximum Humidity 93    
Minimum Humidity 65    
Precipitation  
Precipitation 0.00 in - - ()
Sea Level Pressure  
Sea Level Pressure 30.26 in    
Wind  
Wind Speed 1 mph (South)    
Max Wind Speed 6 mph    
Max Gust Speed -    
Visibility 10 miles    
Events Rain    
Averages and records for this station are not official NWS values.
T = Trace of Precipitation, MM = Missing Value Source: NWS Daily Summary

Daily Weather History Graph

Daily Weather History Graph

Search for Another Location

Airport or City:

Trip Planner

Search our weather history database for the weather conditions in past years. The results will help you decide how hot, cold, wet, or windy it might be!

Date:

Astronomy

May. 18, 2013 Rise Set
Actual Time 5:38 AM EDT 8:11 PM EDT
Civil Twilight 5:07 AM EDT 8:43 PM EDT
Nautical Twilight 4:28 AM EDT 9:22 PM EDT
Astronomical Twilight 3:44 AM EDT 10:06 PM EDT
Moon 1:10 PM EDT (5/18) 1:32 AM EDT (5/18)
Length of Visible Light 15h 35m
Length of Day
14h 32m
First Quarter, 55% of the Moon is Illuminated
May 18
First Quarter
May 25
Full
May 31
Last Quarter
Jun 8
New
Jun 16
First Quarter

Hourly Weather History & Observations

Time (EDT) Temp. Dew Point Humidity Pressure Visibility Wind Dir Wind Speed Gust Speed Precip Events Conditions
12:53 AM 50.0 °F 46.9 °F 89% 30.19 in 10.0 mi NW 3.5 mph - N/A   Clear
1:53 AM 48.0 °F 45.0 °F 89% 30.20 in 10.0 mi Calm Calm - N/A   Partly Cloudy
2:53 AM 50.0 °F 46.0 °F 86% 30.20 in 10.0 mi Calm Calm - N/A   Clear
3:53 AM 50.0 °F 46.9 °F 89% 30.21 in 10.0 mi Calm Calm - N/A   Mostly Cloudy
4:53 AM 51.1 °F 48.0 °F 89% 30.22 in 10.0 mi Calm Calm - N/A   Overcast
5:53 AM 52.0 °F 46.9 °F 83% 30.23 in 10.0 mi Calm Calm - N/A   Overcast
6:53 AM 52.0 °F 50.0 °F 93% 30.26 in 10.0 mi Calm Calm - N/A   Overcast
7:53 AM 55.0 °F 48.9 °F 80% 30.27 in 10.0 mi Calm Calm - N/A   Overcast
8:53 AM 57.0 °F 50.0 °F 77% 30.28 in 10.0 mi Calm Calm - N/A   Overcast
9:53 AM 57.9 °F 51.1 °F 78% 30.29 in 10.0 mi Calm Calm - N/A   Overcast
10:53 AM 59.0 °F 53.1 °F 81% 30.29 in 10.0 mi Calm Calm - 0.00 in   Overcast
11:53 AM 62.1 °F 50.0 °F 65% 30.28 in 10.0 mi Variable 3.5 mph - N/A   Overcast
12:53 PM 64.0 °F 53.1 °F 67% 30.27 in 10.0 mi Calm Calm - 0.00 in   Mostly Cloudy
1:53 PM 64.9 °F 54.0 °F 68% 30.27 in 10.0 mi Calm Calm - N/A   Mostly Cloudy
2:53 PM 64.0 °F 54.0 °F 70% 30.27 in 10.0 mi SSE 3.5 mph - 0.00 in Rain Light Rain
3:53 PM 62.1 °F 55.9 °F 80% 30.27 in 10.0 mi Calm Calm - 0.00 in   Overcast
4:53 PM 61.0 °F 57.0 °F 87% 30.27 in 10.0 mi Calm Calm - 0.00 in Rain Light Rain
5:53 PM 61.0 °F 55.9 °F 83% 30.27 in 10.0 mi Calm Calm - 0.00 in   Overcast
6:53 PM 60.1 °F 54.0 °F 80% 30.27 in 10.0 mi SSE 5.8 mph - N/A   Overcast
7:53 PM 60.1 °F 55.0 °F 83% 30.28 in 10.0 mi Calm Calm - N/A   Overcast
8:53 PM 59.0 °F 54.0 °F 83% 30.28 in 10.0 mi Variable 3.5 mph - N/A   Overcast
9:53 PM 59.0 °F 54.0 °F 83% 30.28 in 10.0 mi Calm Calm - N/A   Overcast
10:53 PM 57.9 °F 53.1 °F 84% 30.28 in 10.0 mi Calm Calm - N/A   Overcast
11:49 PM 57.2 °F 53.6 °F 88% 30.28 in 10.0 mi Calm Calm - N/A   Overcast
11:53 PM 57.2 °F 53.6 °F 88% 30.28 in 10.0 mi Calm Calm - N/A   Overcast